Louisville Bowman, KY

4:35 AM EDT on September 22, 2019 (GMT -0400)
Bowman

Weather History for KLOU - July, 2019

Change the Weather History Date:

Sunday, July 21, 2019

  Actual Average Record
Temperature  
Mean Temperature 84 °F 78 °F  
Max Temperature 93 °F 87 °F 100 °F (1983)
Min Temperature 74 °F 68 °F 56 °F (1970)
Degree Days  
Heating Degree Days 0 0  
Month to date heating degree days 0 0  
Since 1 June heating degree days 5 3  
Since 1 July heating degree days 0 0  
Cooling Degree Days 19 13  
Month to date cooling degree days 357 273  
Year to date cooling degree days 827 725  
Since 1 June cooling degree days 631 578  
Growing Degree Days 33 (Base 50)    
Moisture  
Dew Point 72 °F    
Average Humidity 68    
Maximum Humidity 79    
Minimum Humidity 56    
Precipitation  
Precipitation 0.19 in 0.17 in 5.09 in (1973)
Month to date precipitation 1.88 2.73  
Year to date precipitation 39.04 26.79  
Sea Level Pressure  
Sea Level Pressure 29.93 in    
Wind  
Wind Speed 8 mph (South)    
Max Wind Speed 26 mph    
Max Gust Speed 33 mph    
Visibility 10 miles    
Events Rain , Thunderstorm    
T = Trace of Precipitation, MM = Missing Value Source: NWS Daily Summary

Daily Weather History Graph

Daily Weather History Graph

Search for Another Location

Airport or City:

Astronomy

Jul. 21, 2019 Rise Set
Actual Time 6:35 AM EDT 9:01 PM EDT
Civil Twilight 6:05 AM EDT 9:32 PM EDT
Nautical Twilight 5:28 AM EDT 10:09 PM EDT
Astronomical Twilight 4:46 AM EDT 10:50 PM EDT
Moon 11:59 PM EDT (7/21) 10:52 AM EDT (7/21)
Length of Visible Light 15h 26m
Length of Day
14h 25m
Waning Gibbous, 80% of the Moon is Illuminated
Jul 21
Waning Gibbous
Jul 24
Last Quarter
Jul 31
New
Aug 7
First Quarter
Aug 15
Full

Hourly Weather History & Observations

Time (EDT) Temp. Heat Index Dew Point Humidity Pressure Visibility Wind Dir Wind Speed Gust Speed Precip Events Conditions
12:53 AM 82.0 °F 87.4 °F 73.0 °F 74% 29.96 in 10.0 mi South 9.2 mph - N/A   Mostly Cloudy
1:53 AM 82.9 °F 89.4 °F 73.9 °F 74% 29.95 in 10.0 mi South 8.1 mph - N/A   Mostly Cloudy
2:53 AM 82.0 °F 87.4 °F 73.0 °F 74% 29.93 in 10.0 mi SSW 9.2 mph - N/A   Clear
3:53 AM 80.1 °F 83.6 °F 71.1 °F 74% 29.92 in 10.0 mi SW 3.5 mph - N/A   Clear
4:53 AM 78.1 °F - 71.1 °F 79% 29.92 in 10.0 mi SSE 3.5 mph - N/A   Clear
5:53 AM 78.1 °F - 71.1 °F 79% 29.93 in 10.0 mi South 6.9 mph - N/A   Clear
6:53 AM 77.0 °F - 70.0 °F 79% 29.96 in 10.0 mi South 9.2 mph - N/A   Clear
7:53 AM 77.0 °F - 70.0 °F 79% 29.97 in 10.0 mi SSW 5.8 mph - N/A   Clear
8:53 AM 80.1 °F 83.2 °F 70.0 °F 71% 29.98 in 10.0 mi South 8.1 mph - N/A   Clear
9:53 AM 82.0 °F 86.3 °F 71.1 °F 69% 29.97 in 10.0 mi SSE 4.6 mph - N/A   Clear
10:53 AM 84.9 °F 91.4 °F 73.0 °F 67% 29.97 in 10.0 mi SSW 5.8 mph - N/A   Clear
11:53 AM 89.1 °F 98.0 °F 73.9 °F 61% 29.97 in 10.0 mi SW 8.1 mph - N/A   Partly Cloudy
12:53 PM 90.0 °F 97.9 °F 73.0 °F 57% 29.95 in 10.0 mi Variable 3.5 mph - N/A   Mostly Cloudy
1:53 PM 91.9 °F 100.7 °F 73.0 °F 54% 29.92 in 10.0 mi North - - N/A   Partly Cloudy
2:49 PM 87.8 °F 97.6 °F 75.2 °F 66% 29.93 in 10.0 mi SSE 11.5 mph 23.0 mph N/A Thunderstorm Mostly Cloudy
2:53 PM 89.1 °F 100.2 °F 75.9 °F 65% 29.91 in 10.0 mi SE 13.8 mph - N/A Thunderstorm Mostly Cloudy
3:10 PM 88.0 °F 97.5 °F 75.0 °F 65% 29.94 in 10.0 mi SE 15.0 mph - N/A   Mostly Cloudy
3:46 PM 89.1 °F 96.0 °F 72.0 °F 57% 29.95 in 10.0 mi SSE 16.1 mph 24.2 mph 0.00 in Rain , Thunderstorm Light Thunderstorms and Rain
3:53 PM 88.0 °F 94.7 °F 72.0 °F 59% 29.93 in 10.0 mi SSE 11.5 mph 20.7 mph 0.00 in Thunderstorm Thunderstorm
4:04 PM 86.0 °F 92.2 °F 72.0 °F 63% 29.95 in 10.0 mi South 16.1 mph 23.0 mph N/A   Partly Cloudy
4:53 PM 84.9 °F 92.1 °F 73.9 °F 69% 29.90 in 10.0 mi South 11.5 mph - N/A   Clear
5:53 PM 86.0 °F 93.0 °F 73.0 °F 65% 29.89 in 10.0 mi SSW 9.2 mph - N/A   Clear
6:53 PM 86.0 °F 92.2 °F 72.0 °F 63% 29.88 in 10.0 mi South 10.4 mph 19.6 mph N/A   Clear
7:53 PM 84.9 °F 92.1 °F 73.9 °F 69% 29.90 in 10.0 mi South 10.4 mph - N/A   Clear
8:53 PM 84.0 °F 91.2 °F 73.9 °F 72% 29.90 in 10.0 mi SSW 10.4 mph - N/A   Partly Cloudy
9:53 PM 82.9 °F 90.2 °F 75.0 °F 77% 29.89 in 10.0 mi South 8.1 mph - N/A   Clear
10:16 PM 82.9 °F 90.2 °F 75.0 °F 77% 29.92 in 10.0 mi South 9.2 mph - N/A Thunderstorm Scattered Clouds
10:26 PM 81.0 °F 84.1 °F 69.1 °F 67% 29.94 in 10.0 mi West 19.6 mph 27.6 mph N/A Thunderstorm Mostly Cloudy
10:29 PM 79.0 °F - 68.0 °F 69% 29.94 in 10.0 mi West 15.0 mph 28.8 mph N/A Thunderstorm Thunderstorm
10:40 PM 77.0 °F - 69.1 °F 76% 29.94 in 10.0 mi North 8.1 mph 20.7 mph N/A Thunderstorm Thunderstorm
10:53 PM 75.9 °F - 69.1 °F 79% 29.93 in 8.0 mi West 6.9 mph - 0.00 in Rain , Thunderstorm Rain
11:53 PM 75.0 °F - 70.0 °F 84% 29.94 in 5.0 mi Calm Calm - 0.09 in Rain Rain